Home > Weather > Red Deer > Past weeks

Flag for Canada Past Weather in Red Deer, Alberta, Canada — Yesterday and Last 2 Weeks

Now
73 °F

Broken clouds.


Feels Like: 76 °F
Forecast: 52 / 75 °F
Wind: 2 mph from North

Location: Red Deer

Current Time: Jul 27, 2016 at 11:18:27 AM

Latest Report: Jul 27, 2016 at 11:00 AM


Visibility: 15 mi

Pressure: 30.18 "Hg (27.34 "Hg at 857m altitude)

Humidity: 65%

Dew Point: 61 °F

Location of Red DeerLocation

Past Weather in Red Deer — Graph

°F

Red Deer Temperature Yesterday

Maximum temperature yesterday: 77 °F (at 6:00 PM)
Minimum temperature yesterday: 54 °F (at 5:00 AM)
Average temperature yesterday: 66 °F

High & Low Weather Summary for the Past Weeks

 TemperatureHumidityPressure
High77 °F (Jul 19, 4:00 PM)100% (Jul 14, 2:46 AM)30.25 "Hg (Jul 14, 2:46 AM)
Low46 °F (Jul 18, 6:00 AM)36% (Jul 21, 2:00 PM)29.82 "Hg (Jul 22, 9:00 PM)
Average62 °F80%30.03 "Hg
* Reported Jul 12 11:00 AM — Jul 27 10:00 AM, Red Deer, Weather by CustomWeather, © 2016

Note: Actual official high and low records may vary slightly from our data, if they occured in-between our weather recording intervals... More about our weather records

Advertising

Red Deer Weather History for the Previous 24 Hours

Scroll right to see more
 ConditionsComfort  
Time TempWeatherWind HumidityBarometerVisibility
10:00 AM
Wed, Jul 27
72 °FBroken clouds.No wind69%30.17 "Hg15 mi
9:00 AM68 °FPartly sunny.8 mph73%30.16 "Hg15 mi
8:00 AM63 °FPartly sunny.5 mph88%30.15 "Hg15 mi
7:00 AM59 °FPartly sunny.3 mph100%30.13 "Hg8 mi
6:00 AM55 °FFog.3 mph94%30.13 "Hg1 mi
5:00 AM54 °FFog.2 mph100%30.12 "Hg3 mi
4:00 AM55 °FFog.3 mph100%30.12 "Hg3 mi
3:00 AM57 °FFog.2 mph100%30.11 "Hg6 mi
2:00 AM59 °FPassing clouds.3 mph94%30.11 "Hg12 mi
1:00 AM61 °FPassing clouds.2 mph94%30.11 "Hg15 mi
12:00 AM61 °FPassing clouds.5 mph94%30.11 "Hg15 mi
11:00 PM
Tue, Jul 26
63 °FPassing clouds.2 mph94%30.11 "Hg15 mi
10:00 PM66 °FPartly sunny.3 mph88%30.08 "Hg15 mi
9:00 PM72 °FPartly sunny.3 mph78%30.06 "Hg15 mi
8:00 PM75 °FBroken clouds.6 mph65%30.07 "Hg15 mi
7:00 PM77 °FBroken clouds.5 mph61%30.06 "Hg15 mi
6:00 PM77 °FBroken clouds.5 mph61%30.06 "Hg15 mi
5:00 PM73 °FBroken clouds.2 mph74%30.08 "Hg15 mi
4:00 PM75 °FPartly sunny.5 mph65%30.07 "Hg15 mi
3:00 PM73 °FPartly sunny.5 mph69%30.09 "Hg15 mi
2:00 PM72 °FPartly sunny.5 mph73%30.10 "Hg15 mi
1:00 PM72 °FPartly sunny.3 mph69%30.09 "Hg15 mi
12:00 PM70 °FPartly sunny.No wind73%30.10 "Hg15 mi
11:00 AM68 °FBroken clouds.3 mph78%30.10 "Hg15 mi
Weather by CustomWeather, © 2016

See weather overviewHow to use our weather pages